TimeCDT,TemperatureF,Dew PointF,Humidity,Sea Level PressureIn,VisibilityMPH,Wind Direction,Wind SpeedMPH,Gust SpeedMPH,PrecipitationIn,Events,Conditions,WindDirDegrees,DateUTC
12:21 AM,82.4,77.0,84,29.92,10.0,Calm,Calm,-,0.00,,Scattered Clouds,0,2013-07-25 05:21:00
12:53 AM,79.0,78.1,97,29.91,9.0,Calm,Calm,-,0.00,,Clear,0,2013-07-25 05:53:00
1:53 AM,79.0,77.0,94,29.90,10.0,Calm,Calm,-,N/A,,Clear,0,2013-07-25 06:53:00
2:53 AM,78.1,73.9,87,29.92,10.0,NNW,3.5,-,N/A,,Partly Cloudy,340,2013-07-25 07:53:00
3:53 AM,77.0,73.0,88,29.92,10.0,NNW,3.5,-,N/A,,Overcast,330,2013-07-25 08:53:00
4:53 AM,75.9,73.0,91,29.94,10.0,NW,3.5,-,N/A,,Clear,310,2013-07-25 09:53:00
5:53 AM,75.0,73.0,94,29.96,10.0,NW,3.5,-,N/A,,Partly Cloudy,310,2013-07-25 10:53:00
6:53 AM,73.9,73.0,97,29.96,10.0,NNW,3.5,-,N/A,,Clear,330,2013-07-25 11:53:00
7:29 AM,75.2,73.4,94,29.96,10.0,NW,6.9,-,N/A,,Scattered Clouds,320,2013-07-25 12:29:00
7:38 AM,75.2,73.4,94,29.96,10.0,NW,4.6,-,N/A,,Mostly Cloudy,320,2013-07-25 12:38:00
7:53 AM,75.9,73.9,94,29.98,10.0,Variable,3.5,-,N/A,,Overcast,0,2013-07-25 12:53:00
8:43 AM,78.8,73.4,83,30.00,10.0,Variable,4.6,-,N/A,,Scattered Clouds,0,2013-07-25 13:43:00
8:53 AM,79.0,73.9,84,30.00,10.0,NNW,4.6,-,N/A,,Partly Cloudy,330,2013-07-25 13:53:00
9:32 AM,80.6,73.4,79,30.01,10.0,Variable,3.5,-,N/A,,Mostly Cloudy,0,2013-07-25 14:32:00
9:53 AM,82.9,73.9,74,30.02,10.0,NNW,6.9,-,N/A,,Scattered Clouds,340,2013-07-25 14:53:00
10:53 AM,84.9,73.9,69,30.03,10.0,Variable,5.8,-,N/A,,Mostly Cloudy,0,2013-07-25 15:53:00
11:21 AM,86.0,75.2,70,30.03,10.0,Variable,4.6,-,N/A,,Mostly Cloudy,0,2013-07-25 16:21:00
11:29 AM,86.0,73.4,66,30.02,10.0,NNW,8.1,-,N/A,,Scattered Clouds,330,2013-07-25 16:29:00
11:53 AM,86.0,75.0,70,30.03,10.0,NNW,6.9,-,N/A,,Scattered Clouds,330,2013-07-25 16:53:00
12:53 PM,88.0,75.0,65,30.03,10.0,North,9.2,-,N/A,,Scattered Clouds,10,2013-07-25 17:53:00
1:53 PM,89.1,75.0,63,30.01,10.0,Calm,Calm,-,N/A,,Partly Cloudy,0,2013-07-25 18:53:00
2:53 PM,91.0,73.9,57,29.99,10.0,NW,4.6,-,N/A,,Scattered Clouds,320,2013-07-25 19:53:00
3:53 PM,91.9,73.9,55,29.99,10.0,North,8.1,-,N/A,,Mostly Cloudy,360,2013-07-25 20:53:00
4:53 PM,91.9,75.0,58,29.99,10.0,North,5.8,-,N/A,,Scattered Clouds,10,2013-07-25 21:53:00
5:53 PM,91.0,75.0,59,29.99,10.0,North,8.1,-,N/A,,Clear,360,2013-07-25 22:53:00
6:53 PM,89.1,75.0,63,29.99,10.0,NNE,5.8,-,N/A,,Clear,30,2013-07-25 23:53:00
7:53 PM,82.9,78.1,85,29.99,10.0,Calm,Calm,-,N/A,,Clear,0,2013-07-26 00:53:00
8:53 PM,80.1,77.0,90,30.00,10.0,Calm,Calm,-,N/A,,Clear,0,2013-07-26 01:53:00
9:53 PM,79.0,77.0,94,30.00,10.0,Calm,Calm,-,N/A,,Clear,0,2013-07-26 02:53:00
10:53 PM,78.1,75.9,93,30.01,10.0,Calm,Calm,-,N/A,,Clear,0,2013-07-26 03:53:00
11:53 PM,78.1,75.0,90,30.03,10.0,Calm,Calm,-,N/A,,Partly Cloudy,0,2013-07-26 04:53:00